Year,Month,Day,Hour,Minute,Value (Times are PST for temperature in C)
2012,09,25,00,00,12.30
2012,09,25,00,01,12.30
2012,09,25,00,02,12.20
2012,09,25,00,03,12.20
2012,09,25,00,04,12.20
2012,09,25,00,05,12.20
2012,09,25,00,06,12.20
2012,09,25,00,07,12.20
2012,09,25,00,08,12.20
2012,09,25,00,09,12.20
2012,09,25,00,10,12.20
2012,09,25,00,11,12.20
2012,09,25,00,12,12.10
2012,09,25,00,13,12.10
2012,09,25,00,14,12.10
2012,09,25,00,15,12.10
2012,09,25,00,16,12.10
2012,09,25,00,17,12.10
2012,09,25,00,18,12.10
2012,09,25,00,19,12.00
2012,09,25,00,20,12.00
2012,09,25,00,21,12.00
2012,09,25,00,22,11.90
2012,09,25,00,23,11.90
2012,09,25,00,24,11.90
2012,09,25,00,25,11.90
2012,09,25,00,26,11.80
2012,09,25,00,27,11.80
2012,09,25,00,28,11.80
2012,09,25,00,29,11.80
2012,09,25,00,30,11.80
2012,09,25,00,31,11.80
2012,09,25,00,32,11.70
2012,09,25,00,33,11.70
2012,09,25,00,34,11.70
2012,09,25,00,35,11.70
2012,09,25,00,36,11.70
2012,09,25,00,37,11.70
2012,09,25,00,38,11.70
2012,09,25,00,39,11.80
2012,09,25,00,40,11.80
2012,09,25,00,41,11.80
2012,09,25,00,42,11.80
2012,09,25,00,43,11.80
2012,09,25,00,44,11.80
2012,09,25,00,45,11.80
2012,09,25,00,46,11.80
2012,09,25,00,47,11.80
2012,09,25,00,48,11.80
2012,09,25,00,49,11.80
2012,09,25,00,50,11.80
2012,09,25,00,51,11.80
2012,09,25,00,52,11.80
2012,09,25,00,53,11.80
2012,09,25,00,54,11.80
2012,09,25,00,55,11.80
2012,09,25,00,56,11.80
2012,09,25,00,57,11.80
2012,09,25,00,58,11.80
2012,09,25,00,59,11.80
2012,09,25,01,00,11.80
2012,09,25,01,01,11.80
2012,09,25,01,02,11.80
2012,09,25,01,03,11.80
2012,09,25,01,04,11.80
2012,09,25,01,05,11.80
2012,09,25,01,06,11.80
2012,09,25,01,07,11.80
2012,09,25,01,08,11.80
2012,09,25,01,09,11.80
2012,09,25,01,10,11.80
2012,09,25,01,11,11.80
2012,09,25,01,12,11.80
2012,09,25,01,13,11.80
2012,09,25,01,14,11.80
2012,09,25,01,15,11.80
2012,09,25,01,16,11.80
2012,09,25,01,17,11.80
2012,09,25,01,18,11.80
2012,09,25,01,19,11.80
2012,09,25,01,20,11.90
2012,09,25,01,21,11.90
2012,09,25,01,22,11.90
2012,09,25,01,23,11.90
2012,09,25,01,24,11.90
2012,09,25,01,25,11.90
2012,09,25,01,26,11.90
2012,09,25,01,27,12.00
2012,09,25,01,28,12.00
2012,09,25,01,29,12.00
2012,09,25,01,30,12.00
2012,09,25,01,31,12.10
2012,09,25,01,32,12.10
2012,09,25,01,33,12.10
2012,09,25,01,34,12.10
2012,09,25,01,35,12.10
2012,09,25,01,36,12.10
2012,09,25,01,37,12.10
2012,09,25,01,38,12.10
2012,09,25,01,39,12.10
2012,09,25,01,40,12.10
2012,09,25,01,41,12.10
2012,09,25,01,42,12.10
2012,09,25,01,43,12.10
2012,09,25,01,44,12.10
2012,09,25,01,45,12.10
2012,09,25,01,46,12.10
2012,09,25,01,47,12.10
2012,09,25,01,48,12.10
2012,09,25,01,49,12.10
2012,09,25,01,50,12.10
2012,09,25,01,51,12.10
2012,09,25,01,52,12.10
2012,09,25,01,53,12.10
2012,09,25,01,54,12.10
2012,09,25,01,55,12.10
2012,09,25,01,56,12.10
2012,09,25,01,57,12.10
2012,09,25,01,58,12.10
2012,09,25,01,59,12.10
2012,09,25,02,00,12.10
2012,09,25,02,01,12.10
2012,09,25,02,02,12.10
2012,09,25,02,03,12.10
2012,09,25,02,04,12.10
2012,09,25,02,05,12.00
2012,09,25,02,06,12.00
2012,09,25,02,07,12.00
2012,09,25,02,08,12.00
2012,09,25,02,09,12.00
2012,09,25,02,10,12.00
2012,09,25,02,11,12.00
2012,09,25,02,12,12.00
2012,09,25,02,13,12.00
2012,09,25,02,14,12.00
2012,09,25,02,15,12.00
2012,09,25,02,16,12.00
2012,09,25,02,17,12.00
2012,09,25,02,18,12.00
2012,09,25,02,19,12.00
2012,09,25,02,20,12.00
2012,09,25,02,21,11.90
2012,09,25,02,22,11.90
2012,09,25,02,23,11.90
2012,09,25,02,24,11.90
2012,09,25,02,25,11.90
2012,09,25,02,26,11.90
2012,09,25,02,27,11.90
2012,09,25,02,28,11.90
2012,09,25,02,29,11.90
2012,09,25,02,30,11.80
2012,09,25,02,31,11.90
2012,09,25,02,32,11.80
2012,09,25,02,33,11.80
2012,09,25,02,34,11.80
2012,09,25,02,35,11.80
2012,09,25,02,36,11.80
2012,09,25,02,37,11.80
2012,09,25,02,38,11.80
2012,09,25,02,39,11.80
2012,09,25,02,40,11.80
2012,09,25,02,41,11.80
2012,09,25,02,42,11.80
2012,09,25,02,43,11.80
2012,09,25,02,44,11.80
2012,09,25,02,45,11.80
2012,09,25,02,46,11.80
2012,09,25,02,47,11.80
2012,09,25,02,48,11.80
2012,09,25,02,49,11.80
2012,09,25,02,50,11.80
2012,09,25,02,51,11.70
2012,09,25,02,52,11.70
2012,09,25,02,53,11.80
2012,09,25,02,54,11.70
2012,09,25,02,55,11.70
2012,09,25,02,56,11.70
2012,09,25,02,57,11.70
2012,09,25,02,58,11.70
2012,09,25,02,59,11.70
2012,09,25,03,00,11.70
2012,09,25,03,01,11.70
2012,09,25,03,02,11.70
2012,09,25,03,03,11.70
2012,09,25,03,04,11.70
2012,09,25,03,05,11.60
2012,09,25,03,06,11.60
2012,09,25,03,07,11.60
2012,09,25,03,08,11.60
2012,09,25,03,09,11.60
2012,09,25,03,10,11.60
2012,09,25,03,11,11.60
2012,09,25,03,12,11.60
2012,09,25,03,13,11.60
2012,09,25,03,14,11.50
2012,09,25,03,15,11.50
2012,09,25,03,16,11.60
2012,09,25,03,17,11.60
2012,09,25,03,18,11.60
2012,09,25,03,19,11.60
2012,09,25,03,20,11.60
2012,09,25,03,21,11.60
2012,09,25,03,22,11.50
2012,09,25,03,23,11.50
2012,09,25,03,24,11.50
2012,09,25,03,25,11.40
2012,09,25,03,26,11.40
2012,09,25,03,27,11.40
2012,09,25,03,28,11.40
2012,09,25,03,29,11.40
2012,09,25,03,30,11.40
2012,09,25,03,31,11.40
2012,09,25,03,32,11.30
2012,09,25,03,33,11.40
2012,09,25,03,34,11.30
2012,09,25,03,35,11.30
2012,09,25,03,36,11.40
2012,09,25,03,37,11.40
2012,09,25,03,38,11.40
2012,09,25,03,39,11.40
2012,09,25,03,40,11.40
2012,09,25,03,41,11.30
2012,09,25,03,42,11.30
2012,09,25,03,43,11.30
2012,09,25,03,44,11.30
2012,09,25,03,45,11.30
2012,09,25,03,46,11.20
2012,09,25,03,47,11.20
2012,09,25,03,48,11.20
2012,09,25,03,49,11.20
2012,09,25,03,50,11.20
2012,09,25,03,51,11.20
2012,09,25,03,52,11.20
2012,09,25,03,53,11.20
2012,09,25,03,54,11.20
2012,09,25,03,55,11.20
2012,09,25,03,56,11.10
2012,09,25,03,57,11.10
2012,09,25,03,58,11.10
2012,09,25,03,59,11.10
2012,09,25,04,00,11.10
2012,09,25,04,01,11.10
2012,09,25,04,02,11.10
2012,09,25,04,03,11.00
2012,09,25,04,04,11.00
2012,09,25,04,05,11.00
2012,09,25,04,06,10.90
2012,09,25,04,07,10.90
2012,09,25,04,08,10.90
2012,09,25,04,09,10.90
2012,09,25,04,10,10.80
2012,09,25,04,11,10.80
2012,09,25,04,12,10.80
2012,09,25,04,13,10.70
2012,09,25,04,14,10.70
2012,09,25,04,15,10.70
2012,09,25,04,16,10.60
2012,09,25,04,17,10.60
2012,09,25,04,18,10.60
2012,09,25,04,19,10.60
2012,09,25,04,20,10.60
2012,09,25,04,21,10.60
2012,09,25,04,22,10.50
2012,09,25,04,23,10.50
2012,09,25,04,24,10.50
2012,09,25,04,25,10.50
2012,09,25,04,26,10.50
2012,09,25,04,27,10.40
2012,09,25,04,28,10.40
2012,09,25,04,29,10.40
2012,09,25,04,30,10.40
2012,09,25,04,31,10.30
2012,09,25,04,32,10.30
2012,09,25,04,33,10.30
2012,09,25,04,34,10.30
2012,09,25,04,35,10.30
2012,09,25,04,36,10.30
2012,09,25,04,37,10.30
2012,09,25,04,38,10.30
2012,09,25,04,39,10.30
2012,09,25,04,40,10.30
2012,09,25,04,41,10.30
2012,09,25,04,42,10.30
2012,09,25,04,43,10.20
2012,09,25,04,44,10.20
2012,09,25,04,45,10.20
2012,09,25,04,46,10.20
2012,09,25,04,47,10.20
2012,09,25,04,48,10.10
2012,09,25,04,49,10.10
2012,09,25,04,50,10.10
2012,09,25,04,51,10.00
2012,09,25,04,52,10.00
2012,09,25,04,53,10.00
2012,09,25,04,54,10.00
2012,09,25,04,55,9.90
2012,09,25,04,56,9.90
2012,09,25,04,57,9.90
2012,09,25,04,58,9.90
2012,09,25,04,59,9.90
2012,09,25,05,00,9.80
2012,09,25,05,01,9.80
2012,09,25,05,02,9.80
2012,09,25,05,03,9.80
2012,09,25,05,04,9.80
2012,09,25,05,05,9.80
2012,09,25,05,06,9.80
2012,09,25,05,07,9.80
2012,09,25,05,08,9.80
2012,09,25,05,09,9.80
2012,09,25,05,10,9.80
2012,09,25,05,11,9.80
2012,09,25,05,12,9.80
2012,09,25,05,13,9.80
2012,09,25,05,14,9.80
2012,09,25,05,15,9.80
2012,09,25,05,16,9.80
2012,09,25,05,17,9.80
2012,09,25,05,18,9.80
2012,09,25,05,19,9.80
2012,09,25,05,20,9.80
2012,09,25,05,21,9.80
2012,09,25,05,22,9.80
2012,09,25,05,23,9.70
2012,09,25,05,24,9.70
2012,09,25,05,25,9.70
2012,09,25,05,26,9.70
2012,09,25,05,27,9.70
2012,09,25,05,28,9.70
2012,09,25,05,29,9.60
2012,09,25,05,30,9.60
2012,09,25,05,31,9.60
2012,09,25,05,32,9.60
2012,09,25,05,33,9.60
2012,09,25,05,34,9.60
2012,09,25,05,35,9.60
2012,09,25,05,36,9.50
2012,09,25,05,37,9.50
2012,09,25,05,38,9.50
2012,09,25,05,39,9.50
2012,09,25,05,40,9.50
2012,09,25,05,41,9.50
2012,09,25,05,42,9.50
2012,09,25,05,43,9.50
2012,09,25,05,44,9.50
2012,09,25,05,45,9.50
2012,09,25,05,46,9.40
2012,09,25,05,47,9.40
2012,09,25,05,48,9.40
2012,09,25,05,49,9.40
2012,09,25,05,50,9.30
2012,09,25,05,51,9.30
2012,09,25,05,52,9.30
2012,09,25,05,53,9.30
2012,09,25,05,54,9.30
2012,09,25,05,55,9.20
2012,09,25,05,56,9.20
2012,09,25,05,57,9.20
2012,09,25,05,58,9.20
2012,09,25,05,59,9.10
2012,09,25,06,00,9.10
2012,09,25,06,01,9.10
2012,09,25,06,02,9.10
2012,09,25,06,03,9.10
2012,09,25,06,04,9.10
2012,09,25,06,05,9.10
2012,09,25,06,06,9.10
2012,09,25,06,07,9.10
2012,09,25,06,08,9.10
2012,09,25,06,09,9.10
2012,09,25,06,10,9.10
2012,09,25,06,11,9.10
2012,09,25,06,12,9.10
2012,09,25,06,13,9.10
2012,09,25,06,14,9.10
2012,09,25,06,15,9.10
2012,09,25,06,16,9.10
2012,09,25,06,17,9.10
2012,09,25,06,18,9.10
2012,09,25,06,19,9.10
2012,09,25,06,20,9.10
2012,09,25,06,21,9.10
2012,09,25,06,22,9.10
2012,09,25,06,23,9.10
2012,09,25,06,24,9.10
2012,09,25,06,25,9.10
2012,09,25,06,26,9.10
2012,09,25,06,27,9.10
2012,09,25,06,28,9.00
2012,09,25,06,29,9.00
2012,09,25,06,30,9.00
2012,09,25,06,31,8.90
2012,09,25,06,32,8.90
2012,09,25,06,33,8.90
2012,09,25,06,34,8.90
2012,09,25,06,35,8.80
2012,09,25,06,36,8.80
2012,09,25,06,37,8.80
2012,09,25,06,38,8.80
2012,09,25,06,39,8.80
2012,09,25,06,40,8.80
2012,09,25,06,41,8.70
2012,09,25,06,42,8.70
2012,09,25,06,43,8.70
2012,09,25,06,44,8.70
2012,09,25,06,45,8.70
2012,09,25,06,46,8.70
2012,09,25,06,47,8.70
2012,09,25,06,48,8.70
2012,09,25,06,49,8.70
2012,09,25,06,50,8.70
2012,09,25,06,51,8.70
2012,09,25,06,52,8.70
2012,09,25,06,53,8.70
2012,09,25,06,54,8.70
2012,09,25,06,55,8.60
2012,09,25,06,56,8.60
2012,09,25,06,57,8.60
2012,09,25,06,58,8.60
2012,09,25,06,59,8.60
2012,09,25,07,00,8.60
2012,09,25,07,01,8.60
2012,09,25,07,02,8.70
2012,09,25,07,03,8.70
2012,09,25,07,04,8.70
2012,09,25,07,05,8.70
2012,09,25,07,06,8.70
2012,09,25,07,07,8.70
2012,09,25,07,08,8.70
2012,09,25,07,09,8.70
2012,09,25,07,10,8.70
2012,09,25,07,11,8.70
2012,09,25,07,12,8.70
2012,09,25,07,13,8.60
2012,09,25,07,14,8.60
2012,09,25,07,15,8.60
2012,09,25,07,16,8.60
2012,09,25,07,17,8.60
2012,09,25,07,18,8.60
2012,09,25,07,19,8.60
2012,09,25,07,20,8.60
2012,09,25,07,21,8.60
2012,09,25,07,22,8.70
2012,09,25,07,23,8.70
2012,09,25,07,24,8.70
2012,09,25,07,25,8.70
2012,09,25,07,26,8.80
2012,09,25,07,27,8.80
2012,09,25,07,28,8.80
2012,09,25,07,29,8.90
2012,09,25,07,30,8.90
2012,09,25,07,31,9.00
2012,09,25,07,32,9.00
2012,09,25,07,33,9.00
2012,09,25,07,34,9.00
2012,09,25,07,35,9.10
2012,09,25,07,36,9.10
2012,09,25,07,37,9.10
2012,09,25,07,38,9.10
2012,09,25,07,39,9.20
2012,09,25,07,40,9.20
2012,09,25,07,41,9.20
2012,09,25,07,42,9.20
2012,09,25,07,43,9.30
2012,09,25,07,44,9.30
2012,09,25,07,45,9.30
2012,09,25,07,46,9.30
2012,09,25,07,47,9.30
2012,09,25,07,48,9.30
2012,09,25,07,49,9.30
2012,09,25,07,50,9.30
2012,09,25,07,51,9.30
2012,09,25,07,52,9.30
2012,09,25,07,53,9.30
2012,09,25,07,54,9.30
2012,09,25,07,55,9.30
2012,09,25,07,56,9.30
2012,09,25,07,57,9.30
2012,09,25,07,58,9.30
2012,09,25,07,59,9.30
2012,09,25,08,00,9.30
2012,09,25,08,01,9.30
2012,09,25,08,02,9.30
2012,09,25,08,03,9.30
2012,09,25,08,04,9.30
2012,09,25,08,05,9.30
2012,09,25,08,06,9.30
2012,09,25,08,07,9.30
2012,09,25,08,08,9.40
2012,09,25,08,09,9.40
2012,09,25,08,10,9.40
2012,09,25,08,11,9.50
2012,09,25,08,12,9.50
2012,09,25,08,13,9.50
2012,09,25,08,14,9.60
2012,09,25,08,15,9.60
2012,09,25,08,16,9.60
2012,09,25,08,17,9.60
2012,09,25,08,18,9.60
2012,09,25,08,19,9.60
2012,09,25,08,20,9.60
2012,09,25,08,21,9.60
2012,09,25,08,22,9.60
2012,09,25,08,23,9.60
2012,09,25,08,24,9.70
2012,09,25,08,25,9.70
2012,09,25,08,26,9.70
2012,09,25,08,27,9.70
2012,09,25,08,28,9.80
2012,09,25,08,29,9.80
2012,09,25,08,30,9.80
2012,09,25,08,31,9.80
2012,09,25,08,32,9.80
2012,09,25,08,33,9.90
2012,09,25,08,34,9.90
2012,09,25,08,35,9.90
2012,09,25,08,36,9.90
2012,09,25,08,37,10.00
2012,09,25,08,38,10.00
2012,09,25,08,39,10.10
2012,09,25,08,40,10.10
2012,09,25,08,41,10.20
2012,09,25,08,42,10.20
2012,09,25,08,43,10.30
2012,09,25,08,44,10.30
2012,09,25,08,45,10.40
2012,09,25,08,46,10.40
2012,09,25,08,47,10.40
2012,09,25,08,48,10.40
2012,09,25,08,49,10.40
2012,09,25,08,50,10.40
2012,09,25,08,51,10.50
2012,09,25,08,52,10.60
2012,09,25,08,53,10.60
2012,09,25,08,54,10.70
2012,09,25,08,55,10.80
2012,09,25,08,56,10.80
2012,09,25,08,57,10.90
2012,09,25,08,58,11.10
2012,09,25,08,59,11.20
2012,09,25,09,00,11.20
2012,09,25,09,01,11.30
2012,09,25,09,02,11.30
2012,09,25,09,03,11.30
2012,09,25,09,04,11.30
2012,09,25,09,05,11.30
2012,09,25,09,06,11.40
2012,09,25,09,07,11.40
2012,09,25,09,08,11.40
2012,09,25,09,09,11.50
2012,09,25,09,10,11.50
2012,09,25,09,11,11.60
2012,09,25,09,12,11.60
2012,09,25,09,13,11.60
2012,09,25,09,14,11.60
2012,09,25,09,15,11.70
2012,09,25,09,16,11.70
2012,09,25,09,17,11.70
2012,09,25,09,18,11.80
2012,09,25,09,19,11.80
2012,09,25,09,20,11.80
2012,09,25,09,21,11.80
2012,09,25,09,22,11.80
2012,09,25,09,23,11.80
2012,09,25,09,24,11.80
2012,09,25,09,25,11.80
2012,09,25,09,26,11.90
2012,09,25,09,27,11.90
2012,09,25,09,28,11.90
2012,09,25,09,29,11.90
2012,09,25,09,30,11.90
2012,09,25,09,31,12.00
2012,09,25,09,32,12.00
2012,09,25,09,33,12.00
2012,09,25,09,34,12.10
2012,09,25,09,35,12.10
2012,09,25,09,36,12.10
2012,09,25,09,37,12.20
2012,09,25,09,38,12.30
2012,09,25,09,39,12.30
2012,09,25,09,40,12.30
2012,09,25,09,41,12.30
2012,09,25,09,42,12.40
2012,09,25,09,43,12.40
2012,09,25,09,44,12.40
2012,09,25,09,45,12.40
2012,09,25,09,46,12.50
2012,09,25,09,47,12.60
2012,09,25,09,48,12.70
2012,09,25,09,49,12.80
2012,09,25,09,50,12.90
2012,09,25,09,51,13.00
2012,09,25,09,52,13.10
2012,09,25,09,53,13.20
2012,09,25,09,54,13.30
2012,09,25,09,55,13.40
2012,09,25,09,56,13.40
2012,09,25,09,57,13.50
2012,09,25,09,58,13.60
2012,09,25,09,59,13.70
2012,09,25,10,00,13.70
2012,09,25,10,01,13.80
2012,09,25,10,02,13.90
2012,09,25,10,03,14.00
2012,09,25,10,04,14.10
2012,09,25,10,05,14.10
2012,09,25,10,06,14.10
2012,09,25,10,07,14.10
2012,09,25,10,08,14.10
2012,09,25,10,09,14.20
2012,09,25,10,10,14.30
2012,09,25,10,11,14.40
2012,09,25,10,12,14.40
2012,09,25,10,13,14.40
2012,09,25,10,14,14.30
2012,09,25,10,15,14.30
2012,09,25,10,16,14.30
2012,09,25,10,17,14.30
2012,09,25,10,18,14.30
2012,09,25,10,19,14.30
2012,09,25,10,20,14.40
2012,09,25,10,21,14.40
2012,09,25,10,22,14.50
2012,09,25,10,23,14.60
2012,09,25,10,24,14.60
2012,09,25,10,25,14.70
2012,09,25,10,26,14.70
2012,09,25,10,27,14.80
2012,09,25,10,28,14.80
2012,09,25,10,29,14.80
2012,09,25,10,30,14.90
2012,09,25,10,31,15.00
2012,09,25,10,32,15.10
2012,09,25,10,33,15.20
2012,09,25,10,34,15.30
2012,09,25,10,35,15.30
2012,09,25,10,36,15.40
2012,09,25,10,37,15.40
2012,09,25,10,38,15.40
2012,09,25,10,39,15.50
2012,09,25,10,40,15.50
2012,09,25,10,41,15.50
2012,09,25,10,42,15.50
2012,09,25,10,43,15.60
2012,09,25,10,44,15.70
2012,09,25,10,45,15.80
2012,09,25,10,46,15.80
2012,09,25,10,47,15.80
2012,09,25,10,48,15.80
2012,09,25,10,49,15.80
2012,09,25,10,50,15.80
2012,09,25,10,51,15.80
2012,09,25,10,52,15.80
2012,09,25,10,53,15.80
2012,09,25,10,54,15.90
2012,09,25,10,55,16.00
2012,09,25,10,56,16.00
2012,09,25,10,57,16.10
2012,09,25,10,58,16.10
2012,09,25,10,59,16.10
2012,09,25,11,00,16.20
2012,09,25,11,01,16.20
2012,09,25,11,02,16.30
2012,09,25,11,03,16.40
2012,09,25,11,04,16.50
2012,09,25,11,05,16.60
2012,09,25,11,06,16.70
2012,09,25,11,07,16.70
2012,09,25,11,08,16.80
2012,09,25,11,09,16.80
2012,09,25,11,10,16.80
2012,09,25,11,11,16.70
2012,09,25,11,12,16.60
2012,09,25,11,13,16.60
2012,09,25,11,14,16.60
2012,09,25,11,15,16.60
2012,09,25,11,16,16.60
2012,09,25,11,17,16.60
2012,09,25,11,18,16.50
2012,09,25,11,19,16.50
2012,09,25,11,20,16.50
2012,09,25,11,21,16.60
2012,09,25,11,22,16.50
2012,09,25,11,23,16.50
2012,09,25,11,24,16.50
2012,09,25,11,25,16.60
2012,09,25,11,26,16.70
2012,09,25,11,27,16.60
2012,09,25,11,28,16.60
2012,09,25,11,29,16.60
2012,09,25,11,30,16.60
2012,09,25,11,31,16.60
2012,09,25,11,32,16.60
2012,09,25,11,33,16.50
2012,09,25,11,34,16.40
2012,09,25,11,35,16.40
2012,09,25,11,36,16.40
2012,09,25,11,37,16.40
2012,09,25,11,38,16.40
2012,09,25,11,39,16.40
2012,09,25,11,40,16.40
2012,09,25,11,41,16.40
2012,09,25,11,42,16.50
2012,09,25,11,43,16.50
2012,09,25,11,44,16.50
2012,09,25,11,45,16.50
2012,09,25,11,46,16.40
2012,09,25,11,47,16.40
2012,09,25,11,48,16.40
2012,09,25,11,49,16.40
2012,09,25,11,50,16.40
2012,09,25,11,51,16.40
2012,09,25,11,52,16.40
2012,09,25,11,53,16.50
2012,09,25,11,54,16.50
2012,09,25,11,55,16.50
2012,09,25,11,56,16.50
2012,09,25,11,57,16.60
2012,09,25,11,58,16.70
2012,09,25,11,59,16.80
2012,09,25,12,00,16.90
2012,09,25,12,01,17.00
2012,09,25,12,02,17.20
2012,09,25,12,03,17.30
2012,09,25,12,04,17.40
2012,09,25,12,05,17.50
2012,09,25,12,06,17.60
2012,09,25,12,07,17.50
2012,09,25,12,08,17.50
2012,09,25,12,09,17.60
2012,09,25,12,10,17.70
2012,09,25,12,11,17.80
2012,09,25,12,12,17.90
2012,09,25,12,13,18.10
2012,09,25,12,14,18.10
2012,09,25,12,15,18.00
2012,09,25,12,16,18.00
2012,09,25,12,17,17.90
2012,09,25,12,18,17.80
2012,09,25,12,19,17.80
2012,09,25,12,20,17.80
2012,09,25,12,21,17.90
2012,09,25,12,22,18.00
2012,09,25,12,23,18.10
2012,09,25,12,24,18.20
2012,09,25,12,25,18.30
2012,09,25,12,26,18.30
2012,09,25,12,27,18.20
2012,09,25,12,28,18.00
2012,09,25,12,29,17.80
2012,09,25,12,30,17.60
2012,09,25,12,31,17.50
2012,09,25,12,32,17.40
2012,09,25,12,33,17.30
2012,09,25,12,34,17.20
2012,09,25,12,35,17.20
2012,09,25,12,36,17.20
2012,09,25,12,37,17.20
2012,09,25,12,38,17.30
2012,09,25,12,39,17.30
2012,09,25,12,40,17.40
2012,09,25,12,41,17.40
2012,09,25,12,42,17.40
2012,09,25,12,43,17.30
2012,09,25,12,44,17.30
2012,09,25,12,45,17.30
2012,09,25,12,46,17.30
2012,09,25,12,47,17.20
2012,09,25,12,48,17.20
2012,09,25,12,49,17.20
2012,09,25,12,50,17.10
2012,09,25,12,51,17.10
2012,09,25,12,52,17.10
2012,09,25,12,53,17.10
2012,09,25,12,54,17.10
2012,09,25,12,55,17.10
2012,09,25,12,56,17.10
2012,09,25,12,57,17.10
2012,09,25,12,58,17.00
2012,09,25,12,59,16.90
2012,09,25,13,00,16.80
2012,09,25,13,01,16.70
2012,09,25,13,02,16.70
2012,09,25,13,03,16.80
2012,09,25,13,04,16.80
2012,09,25,13,05,16.90
2012,09,25,13,06,16.90
2012,09,25,13,07,16.90
2012,09,25,13,08,16.90
2012,09,25,13,09,16.90
2012,09,25,13,10,16.90
2012,09,25,13,11,16.90
2012,09,25,13,12,16.90
2012,09,25,13,13,17.00
2012,09,25,13,14,17.00
2012,09,25,13,15,17.00
2012,09,25,13,16,16.90
2012,09,25,13,17,16.90
2012,09,25,13,18,16.90
2012,09,25,13,19,16.90
2012,09,25,13,20,16.80
2012,09,25,13,21,16.80
2012,09,25,13,22,16.80
2012,09,25,13,23,16.80
2012,09,25,13,24,16.90
2012,09,25,13,25,17.00
2012,09,25,13,26,17.10
2012,09,25,13,27,17.10
2012,09,25,13,28,17.20
2012,09,25,13,29,17.20
2012,09,25,13,30,17.20
2012,09,25,13,31,17.20
2012,09,25,13,32,17.20
2012,09,25,13,33,17.30
2012,09,25,13,34,17.30
2012,09,25,13,35,17.40
2012,09,25,13,36,17.40
2012,09,25,13,37,17.40
2012,09,25,13,38,17.30
2012,09,25,13,39,17.20
2012,09,25,13,40,17.10
2012,09,25,13,41,17.00
2012,09,25,13,42,16.90
2012,09,25,13,43,16.90
2012,09,25,13,44,16.80
2012,09,25,13,45,16.70
2012,09,25,13,46,16.60
2012,09,25,13,47,16.60
2012,09,25,13,48,16.60
2012,09,25,13,49,16.70
2012,09,25,13,50,16.60
2012,09,25,13,51,16.60
2012,09,25,13,52,16.60
2012,09,25,13,53,16.70
2012,09,25,13,54,16.70
2012,09,25,13,55,16.80
2012,09,25,13,56,16.90
2012,09,25,13,57,16.90
2012,09,25,13,58,16.80
2012,09,25,13,59,16.80
2012,09,25,14,00,16.90
2012,09,25,14,01,16.90
2012,09,25,14,02,16.90
2012,09,25,14,03,16.90
2012,09,25,14,04,16.90
2012,09,25,14,05,16.90
2012,09,25,14,06,16.80
2012,09,25,14,07,16.80
2012,09,25,14,08,16.90
2012,09,25,14,09,16.90
2012,09,25,14,10,16.90
2012,09,25,14,11,16.90
2012,09,25,14,12,16.80
2012,09,25,14,13,16.90
2012,09,25,14,14,17.00
2012,09,25,14,15,17.10
2012,09,25,14,16,17.10
2012,09,25,14,17,17.10
2012,09,25,14,18,17.20
2012,09,25,14,19,17.10
2012,09,25,14,20,17.10
2012,09,25,14,21,17.10
2012,09,25,14,22,17.10
2012,09,25,14,23,17.10
2012,09,25,14,24,17.10
2012,09,25,14,25,17.10
2012,09,25,14,26,17.10
2012,09,25,14,27,17.20
2012,09,25,14,28,17.20
2012,09,25,14,29,17.30
2012,09,25,14,30,17.30
2012,09,25,14,31,17.30
2012,09,25,14,32,17.40
2012,09,25,14,33,17.40
2012,09,25,14,34,17.40
2012,09,25,14,35,17.40
2012,09,25,14,36,17.40
2012,09,25,14,37,17.30
2012,09,25,14,38,17.30
2012,09,25,14,39,17.30
2012,09,25,14,40,17.20
2012,09,25,14,41,17.20
2012,09,25,14,42,17.10
2012,09,25,14,43,17.00
2012,09,25,14,44,16.90
2012,09,25,14,45,16.80
2012,09,25,14,46,16.70
2012,09,25,14,47,16.70
2012,09,25,14,48,16.70
2012,09,25,14,49,16.80
2012,09,25,14,50,16.80
2012,09,25,14,51,16.80
2012,09,25,14,52,16.80
2012,09,25,14,53,16.70
2012,09,25,14,54,16.60
2012,09,25,14,55,16.60
2012,09,25,14,56,16.60
2012,09,25,14,57,16.50
2012,09,25,14,58,16.50
2012,09,25,14,59,16.40
2012,09,25,15,00,16.40
2012,09,25,15,01,16.40
2012,09,25,15,02,16.30
2012,09,25,15,03,16.20
2012,09,25,15,04,16.10
2012,09,25,15,05,16.10
2012,09,25,15,06,16.00
2012,09,25,15,07,15.90
2012,09,25,15,08,15.90
2012,09,25,15,09,15.80
2012,09,25,15,10,15.60
2012,09,25,15,11,15.50
2012,09,25,15,12,15.40
2012,09,25,15,13,15.40
2012,09,25,15,14,15.40
2012,09,25,15,15,15.40
2012,09,25,15,16,15.40
2012,09,25,15,17,15.50
2012,09,25,15,18,15.60
2012,09,25,15,19,15.70
2012,09,25,15,20,15.70
2012,09,25,15,21,15.70
2012,09,25,15,22,15.80
2012,09,25,15,23,15.80
2012,09,25,15,24,15.80
2012,09,25,15,25,15.90
2012,09,25,15,26,16.00
2012,09,25,15,27,15.90
2012,09,25,15,28,15.90
2012,09,25,15,29,15.80
2012,09,25,15,30,15.80
2012,09,25,15,31,15.70
2012,09,25,15,32,15.70
2012,09,25,15,33,15.70
2012,09,25,15,34,15.70
2012,09,25,15,35,15.70
2012,09,25,15,36,15.70
2012,09,25,15,37,15.80
2012,09,25,15,38,15.80
2012,09,25,15,39,15.70
2012,09,25,15,40,15.70
2012,09,25,15,41,15.70
2012,09,25,15,42,15.70
2012,09,25,15,43,15.70
2012,09,25,15,44,15.70
2012,09,25,15,45,15.70
2012,09,25,15,46,15.70
2012,09,25,15,47,15.70
2012,09,25,15,48,15.80
2012,09,25,15,49,15.80
2012,09,25,15,50,15.80
2012,09,25,15,51,15.70
2012,09,25,15,52,15.70
2012,09,25,15,53,15.70
2012,09,25,15,54,15.70
2012,09,25,15,55,15.70
2012,09,25,15,56,15.70
2012,09,25,15,57,15.80
2012,09,25,15,58,15.80
2012,09,25,15,59,15.80
2012,09,25,16,00,15.70
2012,09,25,16,01,15.70
2012,09,25,16,02,15.70
2012,09,25,16,03,15.70
2012,09,25,16,04,15.80
2012,09,25,16,05,15.80
2012,09,25,16,06,15.80
2012,09,25,16,07,15.80
2012,09,25,16,08,15.80
2012,09,25,16,09,15.70
2012,09,25,16,10,15.70
2012,09,25,16,11,15.70
2012,09,25,16,12,15.70
2012,09,25,16,13,15.70
2012,09,25,16,14,15.70
2012,09,25,16,15,15.70
2012,09,25,16,16,15.80
2012,09,25,16,17,15.80
2012,09,25,16,18,15.80
2012,09,25,16,19,15.70
2012,09,25,16,20,15.70
2012,09,25,16,21,15.70
2012,09,25,16,22,15.70
2012,09,25,16,23,15.70
2012,09,25,16,24,15.70
2012,09,25,16,25,15.70
2012,09,25,16,26,15.70
2012,09,25,16,27,15.60
2012,09,25,16,28,15.60
2012,09,25,16,29,15.60
2012,09,25,16,30,15.60
2012,09,25,16,31,15.70
2012,09,25,16,32,15.70
2012,09,25,16,33,15.80
2012,09,25,16,34,15.80
2012,09,25,16,35,15.80
2012,09,25,16,36,15.80
2012,09,25,16,37,15.80
2012,09,25,16,38,15.90
2012,09,25,16,39,15.90
2012,09,25,16,40,15.90
2012,09,25,16,41,15.90
2012,09,25,16,42,15.90
2012,09,25,16,43,15.90
2012,09,25,16,44,15.80
2012,09,25,16,45,15.80
2012,09,25,16,46,15.80
2012,09,25,16,47,15.80
2012,09,25,16,48,15.80
2012,09,25,16,49,15.80
2012,09,25,16,50,15.80
2012,09,25,16,51,15.80
2012,09,25,16,52,15.80
2012,09,25,16,53,15.80
2012,09,25,16,54,15.80
2012,09,25,16,55,15.80
2012,09,25,16,56,15.80
2012,09,25,16,57,15.80
2012,09,25,16,58,15.70
2012,09,25,16,59,15.70
2012,09,25,17,00,15.70
2012,09,25,17,01,15.70
2012,09,25,17,02,15.70
2012,09,25,17,03,15.70
2012,09,25,17,04,15.70
2012,09,25,17,05,15.70
2012,09,25,17,06,15.70
2012,09,25,17,07,15.70
2012,09,25,17,08,15.70
2012,09,25,17,09,15.70
2012,09,25,17,10,15.70
2012,09,25,17,11,15.70
2012,09,25,17,12,15.60
2012,09,25,17,13,15.60
2012,09,25,17,14,15.60
2012,09,25,17,15,15.60
2012,09,25,17,16,15.60
2012,09,25,17,17,15.60
2012,09,25,17,18,15.60
2012,09,25,17,19,15.60
2012,09,25,17,20,15.60
2012,09,25,17,21,15.70
2012,09,25,17,22,15.70
2012,09,25,17,23,15.70
2012,09,25,17,24,15.70
2012,09,25,17,25,15.70
2012,09,25,17,26,15.70
2012,09,25,17,27,15.70
2012,09,25,17,28,15.60
2012,09,25,17,29,15.60